www.pogodaiklimat.ru

Погода и климат >> Архив погоды >> Боливия >> Cobija


ПОГОДА в Cobija

  • Прогноз погоды в Cobija
  • Монитор погоды в Cobija
  • Климат города

АРХИВ ПОГОДЫ в Cobija

Время (UTC), дата Ветер
(напр.,м/с)
 
Видим.   Явления Облачность Т
(С)
Тd
(С)
f
(%)
Тe
(С)
Тes
(С)
Комфортность P
(гПа)
Po
(гПа)
Тmin
(С)
Tmax
(С)
R
(мм)
R24
(мм)
S
(см)
12 15.10 З 2 20 км 9/0 2000 м
[Ac As]
+24.9 +23.3 91 +33 +35 очень
душно
1012.5 985.8 +23.5 4
15 15.10 З 2 20 км 4/1 700 м
[Cu hum Ac trans]
+30.2 +24.6 72 +43 +56 опасность
перегрева
1012.2 986.0
18 15.10 З 5 20 км 6/5 700 м
[Cu med, cong Ac trans Ci sp]
+33.3 +24.0 58 +45 +49 опасность
перегрева
1008.0 982.2
21 15.10 З 4 10 км дым 5/1 900 м
[Cu med, cong Ci sp]
+33.8 +22.6 52 +43 +45 опасность
перегрева
1004.6 978.9 +34.7
12 16.10 З 4 20 км 4/0 2000 м
[Ac trans Ci fib]
+27.1 +23.8 82 +37 +39 очень
душно
1009.6 983.2 +24.0
15 16.10 СЗ 5 20 км 6/4 500 м
[Cu hum Ac trans Ci fib]
+32.2 +23.8 61 +44 +48 опасность
перегрева
1009.2 983.2
18 16.10 СЗ 6 20 км 5/5 700 м
[Cu med, cong Ci fib]
+34.0 +23.7 55 +45 +50 опасность
перегрева
1005.7 980.0
21 16.10 СЗ 2 20 км 5/4 700 м
[Cu med, cong Ci fib]
+32.8 +23.5 58 +44 +46 опасность
перегрева
1003.8 978.0 +35.1
12 17.10 штиль 0 20 км 5/4 750 м
[Cu med, cong Ac trans]
+27.3 +24.3 84 +38 +41 очень
душно
1008.4 982.0 +24.1 0.3
15 17.10 З 6 20 км 5/5 700 м
[Cu hum]
+33.3 +24.2 59 +45 +50 опасность
перегрева
1008.9 983.0
18 17.10 СЗ 5 20 км 6/5 750 м
[Cb cap Ac cuf Ci ing]
+35.9 +23.9 50 +47 +52 опасность
перегрева
1004.8 979.3
21 17.10 СВ 2 8000 м гроза без осадков 9/4 750 м
[Cb cap Ac cuf Ci ing]
+31.7 +22.4 58 +41 +42 опасность
перегрева
1004.4 978.5 +36.5
12 18.10 З 2 20 км 9/0 2000 м
[Ac trans Ci sp]
+25.7 +23.4 87 +35 +36 очень
душно
1009.5 982.9 +23.0
15 18.10 СЗ 4 20 км 8/1 500 м
[Cu hum Ci sp]
+31.3 +24.2 66 +43 +53 опасность
перегрева
1009.6 983.5
18 18.10 З 7 20 км 6/6 600 м
[Cb cap Ci ing]
+33.8 +24.7 59 +47 +49 опасность
перегрева
1007.2 981.4
21 18.10 СЗ 2 15 км осадки на расстоянии 8/4 700 м
[Cb cap Ac cuf Ci ing]
+32.2 +24.8 65 +45 +47 опасность
перегрева
1004.1 978.3 +34.7
12 19.10 СЗ 2 20 км 6/0 2000 м
[Ac trans Ci sp]
+25.7 +23.6 88 +35 +37 очень
душно
1009.3 982.7 +23.0
15 19.10 З 3 20 км 6/1 600 м
[Cu hum Ci sp]
+31.9 +24.0 63 +44 +56 опасность
перегрева
1008.9 982.9
18 19.10 СЗ 5 20 км 9/3 900 м
[Cu hum Ci sp]
+35.2 +22.6 48 +44 +50 опасность
перегрева
1005.6 980.0
21 19.10 СЗ 4 20 км 8/1 900 м
[Cu hum Ci fib]
+34.8 +22.9 50 +45 +47 опасность
перегрева
1002.3 976.8 +36.5
12 20.10 ЮВ 4 6000 м слабый дождь 10/5 120 м
[Cb cap As op]
+22.9 +22.7 99 +31 +32 очень
душно
1010.4 983.5 +22.0 8
15 20.10 В 2 4000 м слабый дождь {гроза} 10/6 90 м
[Cb cap As op]
+22.0 +21.8 99 +29 +30 очень
душно
1012.0 985.0
18 20.10 ЮВ 3 8000 м слабый дождь 10/5 150 м
[Sc As op]
+23.2 +22.9 98 +32 +34 очень
душно
1010.8 984.0 18
21 20.10 Ю 4 20 км {дождь} 10/4 300 м
[Sc As op]
+25.1 +22.6 86 +33 +33 очень
душно
1007.9 981.3 +26.1
12 21.10 ЮЗ 2 20 км 9/3 150 м
[Sc Ac trans]
+24.0 +22.6 92 +31 +33 очень
душно
1010.8 984.0 +20.5 26
15 21.10 ЮВ 2 20 км 9/4 500 м
[Cu hum Ac trans]
+29.3 +24.6 76 +42 +48 опасность
перегрева
1010.8 984.5
18 21.10 ЮВ 2 20 км 8/6 600 м
[Cu med, cong Ac trans]
+31.0 +22.9 62 +41 +46 опасность
перегрева
1007.6 981.6
21 21.10 ЮВ 2 10 км осадки на расстоянии 8/3 600 м
[Cb cap Ac trans]
+26.2 +23.7 86 +36 +38 очень
душно
1005.4 979.0 +31.4

 

Местоположение метеостанции Cobija (Боливия): широта -11.03 долгота -68.78 высота над уровнем моря 235 м.

В архиве по умолчанию представлена погода в Cobija за последнюю неделю. Архивные данные за месяц целиком и за предыдущие месяцы, начиная с января 2011 года, Вы можете получить, выбрав интересующий диапазон дат из раскрывающегося списка и нажав кнопку "Ввод!".


*Определитесь, кто Вы:
робот инопланетянин человек

Внимание! Время в таблицах - всемирное. Для получения местного времени необходимо прибавить поправку, которая в Cobija равна -4 ч.

Смотрите также архив погоды в соседних городах и на ближайших метеорологических станциях:

Погода в Epitaciolandia (Бразилия) (6 км)
Погода в Rio Branco (Бразилия) (136 км)
Погода в Rio Branco (Бразилия) (157 км)
Погода в Puerto Maldonado (Перу) (181 км)
Погода в Parque Estadual Chan (Бразилия) (223 км)
Погода в Riberalta (Боливия) (292 км)
Погода в Boca do Acre (Бразилия) (296 км)
Погода в Feijo (Бразилия) (364 км)
Погода в Tarauaca (Бразилия) (385 км)
Погода в Reyes (Боливия) (395 км)

Пояснения к столбцам:

Ветер - указаны скорость ветра в м/с - средняя за 10 мин, порывы в срок и между сроками (в фигурных скобках) и направление, откуда дует ветер: С - северный, СВ - северо-восточный, В - восточный, ЮВ - юго-восточный, Ю - южный, ЮЗ - юго-западный, З - западный, СЗ - северо-западный.
Видимость - горизонтальная дальность видимости в метрах или километрах. При видимости от 1 до 10 км при отсутствии осадков обычно наблюдается дымка, при ухудшении видимости до 1 км и менее - туман. В сухую погоду видимость может ухудшаться дымом, пылью или мглою.
Явления - указаны атмосферные явления, наблюдавшиеся в срок или в последний час перед сроком; фигурными скобками обозначены явления, наблюдавшиеся между сроками (за 1-3 часа до срока); квадратными скобками обозначены град или гололедные отложения с указанием их диаметра в мм.
Облачность - указаны через наклонную черту общая и нижняя облачность в баллах и высота нижней границы облаков в метрах; квадратными скобками обозначены формы облаков: Ci - перистые, Cs - перисто-слоистые, Cc - перисто-кучевые, Ac - высококучевые, As - высокослоистые, Sc - слоисто-кучевые, Ns - слоисто-дождевые, Cu - кучевые, Cb - кучево-дождевые. Подробнее классификацию облаков см. в Атласе облаков (PDF).
T - Температура воздуха - температура, измеренная на высоте 2 м над землей.
Td - Температура точки росы - температура, при понижении до которой содержащийся в воздухе водяной пар достигнет насыщения.
f - Относительная влажность воздуха - влажноcть воздуха, измеренная на высоте 2 м над землей.
Te - Эффективная температура - температура, которую ощущает одетый по сезону человек в тени. Характеристика душности погоды. При расчете учитывается влияние влажности воздуха и скорости ветра на теплоощущения человека.
Tes - Эффективная температура на солнце - температура, которую ощущает человек, с поправкой на солнечный нагрев. Характеристика знойности погоды. Зависит от высоты солнца над горизонтом, облачности и скорости ветра. Ночью, в пасмурную погоду, а также при ветре 12 м/с и более поправка равна нулю.
P - Атмосферное давление - приведенное к уровню моря атмосферное давление.
Po - Атмосферное давление - измеренное на уровне метеостанции атмосферное давление.
Tmin - Минимальная температура - минимум температуры воздуха на высоте 2 м над землей.
Tmax - Максимальная температура - максимум температуры воздуха на высоте 2 м над землей.
R - Количество осадков - Количество выпавших осадков за период времени, мм. При наведении курсора мыши на число - период времени, за который выпало указанное количество осадков.
R24 - Количество осадков - Количество выпавших осадков за 24 часа, мм.
S - Снежный покров - Высота снежного покрова, см. При наведении курсора мыши на число - состояние снежного покрова и степень покрытия местности в баллах.